EHI
8 19 36 42 38 34 28 24 20 18 17 15 14 14 11 11 12 9 5 3 3 3 3 3 2 1 1 1 1 2 2 1 1 1 1 1 1 2 4 4 2 1 3
7 18 36 42 37 32 27 22 18 17 16 13 11 10 9 10 11 10 6 3 3 3 3 2 1 0 0 0 0 1 1 2 3 4 4 3 2 3 4 4 3 2 4
6 15 31 39 36 31 26 21 17 15 14 12 10 8 7 8 10 10 7 4 3 3 3 1 0 0 0 0 0 0 0 2 5 8 7 4 4 3 3 3 3 3 5
5 11 25 36 37 31 27 21 17 14 12 11 9 7 5 6 8 9 7 4 2 1 1 0 0 0 0 0 1 1 1 3 6 8 6 3 3 2 1 1 2 3 5
5 10 23 36 38 31 27 23 19 16 13 10 8 5 4 5 8 8 7 5 3 2 1 1 0 0 0 0 0 1 2 4 6 6 3 1 1 1 1 1 2 3 4
8 13 25 37 38 31 25 24 22 19 15 11 7 5 4 6 7 8 8 7 5 4 3 2 1 0 0 0 0 0 1 3 5 4 2 1 2 4 5 4 3 3 4
14 17 26 37 37 30 24 22 22 21 18 14 10 6 5 6 7 8 8 7 6 5 4 3 2 0 0 0 0 0 1 3 4 3 3 2 3 6 9 7 4 3 3
20 21 25 33 35 31 25 20 18 19 18 16 12 7 4 5 6 6 7 6 6 5 3 2 2 1 1 1 1 1 2 3 3 3 3 2 3 6 9 9 6 3 2
25 24 24 25 28 28 24 18 17 18 18 17 13 7 4 3 4 4 4 4 4 3 2 2 2 2 2 3 4 4 4 4 4 3 3 2 3 6 9 10 9 4 1
25 25 24 21 21 21 19 17 15 15 16 14 12 8 4 2 1 1 1 1 1 1 1 2 3 3 3 4 5 5 4 4 3 3 2 2 3 6 10 12 11 7 4
24 24 24 22 19 17 16 14 12 10 11 10 9 8 4 1 0 0 0 0 0 0 1 3 3 3 3 3 3 3 3 2 2 1 1 2 3 6 10 13 11 7 5
22 21 22 21 19 17 16 14 10 7 7 7 7 6 3 1 0 0 0 1 1 1 2 2 2 2 1 1 1 1 1 1 1 0 0 2 3 6 10 13 11 7 5
20 19 19 19 19 18 17 14 10 8 7 7 7 5 3 1 0 0 0 1 2 2 1 1 1 1 0 0 0 0 0 0 0 0 1 3 4 6 9 12 11 9 6
19 17 17 19 18 18 18 15 11 9 9 8 7 6 5 3 1 0 0 1 1 1 0 0 0 0 0 0 0 0 0 0 0 0 1 3 5 6 9 11 10 9 7
18 18 19 20 20 19 19 16 12 10 10 9 8 8 7 5 2 1 1 1 1 0 0 1 1 1 0 0 0 0 0 0 0 0 1 2 4 8 11 11 8 7 7
19 20 22 23 22 21 20 17 14 12 10 9 8 9 9 6 3 3 3 3 2 1 1 2 2 1 0 0 0 0 0 0 0 0 1 2 4 8 10 9 8 7 5
19 21 24 24 22 22 22 19 18 17 14 11 9 10 9 7 6 6 6 6 4 3 3 3 3 2 1 1 0 0 0 0 1 1 2 3 4 6 6 6 7 7 5
20 22 23 23 23 24 24 22 23 23 21 16 12 11 10 8 8 8 8 8 7 6 6 5 5 4 3 2 1 0 0 1 2 3 3 3 3 3 4 4 5 6 6
18 21 24 25 25 27 27 25 26 27 24 20 16 14 11 9 10 9 8 8 8 8 7 6 6 5 4 2 1 1 1 2 3 3 3 3 3 3 3 4 5 6 6
15 20 26 28 29 29 28 27 26 26 23 20 19 17 15 13 12 10 8 8 8 8 7 6 5 4 3 1 1 2 3 3 3 3 3 3 3 3 3 3 4 5 5
19 22 27 31 31 30 29 28 27 25 23 21 21 21 20 17 15 12 10 9 9 8 7 6 5 4 3 2 2 3 3 3 3 3 3 3 3 3 3 3 3 3 3
28 28 30 32 32 31 30 28 27 26 24 22 22 22 21 20 19 15 11 10 10 9 8 7 5 4 3 3 3 3 3 3 3 3 3 3 3 3 3 2 1 1 2
35 33 32 33 33 32 30 28 27 26 24 23 21 20 21 22 22 18 14 11 11 10 8 7 6 5 4 3 3 3 3 3 3 3 2 2 1 1 2 1 0 0 1
35 33 32 32 33 32 30 29 28 26 24 22 21 21 22 23 22 20 16 14 12 10 8 7 6 6 5 4 4 3 3 3 2 1 1 1 0 0 0 0 0 0 0
31 30 29 29 31 32 31 30 28 26 24 23 21 21 21 22 21 19 17 14 12 10 8 7 7 7 6 6 5 4 3 2 1 0 0 0 0 0 0 0 0 0 0
28 27 26 27 30 32 31 30 28 26 24 23 22 20 19 20 20 18 15 13 11 9 9 9 8 7 6 6 5 4 3 2 1 0 0 0 0 0 0 0 0 0 0
Wind_Speed
7 9 14 15 15 14 14 14 13 13 13 13 13 13 13 13 13 13 13 12 12 12 12 12 12 11 12 12 12 13 13 13 13 13 13 14 14 14 14 14 13 9 13
12 11 15 15 15 15 14 14 13 13 13 13 13 13 13 13 12 12 12 12 11 11 11 11 10 10 11 11 11 12 12 12 12 12 12 12 13 13 14 14 13 8 13
14 11 13 16 16 15 14 14 13 13 13 12 12 13 13 12 12 11 11 11 11 11 11 10 10 9 9 10 10 11 10 11 11 12 11 6 8 12 13 13 13 13 12
15 10 12 16 16 15 14 14 13 13 13 12 12 12 12 12 11 11 11 11 10 10 10 10 9 8 8 8 9 9 9 9 10 11 6 4 5 11 12 13 13 13 12
12 10 12 17 16 15 15 14 14 13 13 12 12 12 11 11 11 10 10 10 9 9 9 9 8 8 7 8 8 8 8 8 10 7 4 4 3 9 12 13 12 12 12
11 10 12 17 16 15 15 14 14 13 13 12 12 12 11 10 10 9 10 9 9 8 8 8 8 7 7 7 6 6 6 8 7 4 4 4 4 9 11 12 12 12 11
12 9 11 16 16 15 15 14 14 13 13 12 12 11 10 9 9 8 9 9 8 8 8 8 7 6 6 6 5 5 5 7 5 4 4 4 6 10 11 11 12 11 11
14 11 10 16 17 15 15 14 13 13 12 12 11 10 10 9 8 8 8 8 8 7 7 7 6 6 5 5 5 4 5 7 5 5 4 4 8 11 11 11 11 11 11
13 11 9 9 12 15 15 14 13 12 12 11 10 10 9 8 8 8 7 7 7 7 6 6 6 5 4 4 4 4 5 7 4 3 5 4 9 11 11 12 11 11 11
10 10 9 8 7 8 9 13 13 12 12 11 11 10 9 9 8 8 7 6 6 6 6 5 5 4 4 4 4 5 5 5 3 3 3 5 11 12 12 12 11 11 10
10 8 9 9 8 7 7 10 11 11 11 10 9 10 8 3 3 4 6 7 7 6 6 5 4 4 3 3 3 4 4 2 3 3 3 8 12 12 12 12 11 11 10
12 10 9 9 9 8 8 6 5 5 5 5 4 5 3 3 2 4 5 7 7 5 5 4 3 2 1 1 2 3 1 2 2 3 5 11 13 13 13 12 11 11 11
12 11 10 10 9 8 5 5 3 3 3 4 4 4 3 2 2 2 1 3 3 3 2 1 1 0 0 1 1 1 2 2 2 3 5 11 13 14 14 13 12 11 11
11 11 10 10 9 8 6 6 5 4 4 4 5 5 4 2 2 2 2 2 1 1 1 1 1 1 1 1 1 2 2 2 2 2 5 12 13 14 14 14 13 12 12
12 11 11 10 10 8 7 6 6 5 5 5 5 5 5 4 3 3 2 2 2 2 2 1 1 1 1 1 1 2 2 2 3 3 3 11 13 13 14 13 13 12 12
12 12 10 10 9 9 7 6 6 6 6 5 5 6 6 4 4 3 3 3 2 2 2 2 3 2 1 1 1 1 1 2 3 3 3 6 12 12 12 13 13 12 11
13 12 10 10 9 9 8 7 6 6 6 5 5 6 6 5 5 4 3 3 3 3 3 2 2 1 1 1 1 1 2 2 3 4 4 3 4 9 11 12 12 12 11
12 11 10 10 9 9 8 6 5 5 6 5 5 5 6 6 6 4 3 3 3 3 2 2 2 1 1 1 1 2 2 2 2 3 3 3 3 4 7 11 11 11 11
12 12 10 9 10 9 7 5 4 4 5 4 5 5 6 7 6 5 4 3 3 3 2 3 2 2 2 2 2 2 2 2 3 3 3 4 4 4 4 7 11 12 12
10 10 9 8 8 7 5 4 3 3 3 3 4 5 7 6 6 5 4 3 3 3 2 2 2 2 2 2 2 1 2 2 2 3 3 3 3 5 4 5 5 7 12
7 8 9 9 8 6 5 5 4 4 3 3 3 5 7 6 6 5 4 3 3 3 3 3 2 2 1 1 1 1 2 2 2 2 2 2 3 4 4 4 4 4 4
8 8 8 8 8 7 5 5 4 4 4 4 3 4 6 6 6 6 5 4 4 3 3 3 2 2 1 1 2 1 1 3 2 2 2 3 4 3 3 5 4 4 4
8 8 8 8 8 7 5 3 3 2 1 1 3 3 5 6 6 6 6 5 4 4 4 3 3 3 2 1 2 3 2 3 2 2 2 3 3 3 3 3 5 5 5
7 7 6 6 7 6 7 6 6 5 4 4 4 3 3 4 5 5 6 5 5 4 4 4 4 3 3 2 1 1 2 3 2 1 3 2 2 3 3 4 4 5 5
7 6 5 5 5 5 6 7 7 5 4 2 3 4 4 3 4 4 5 5 5 4 4 4 3 3 3 3 2 2 1 0 1 2 2 2 2 2 3 3 3 4 4
6 6 5 5 4 4 5 6 6 6 5 4 4 4 4 2 3 4 4 4 4 4 4 4 4 4 3 3 3 2 2 2 2 2 2 2 2 3 2 2 3 3 4
Wind_Direction
156 161 147 138 132 127 124 120 117 115 112 109 107 105 105 106 106 106 106 108 109 111 113 113 114 115 117 119 120 121 124 127 128 125 124 124 124 125 126 126 124 124 125
153 156 147 140 135 132 129 127 124 120 118 115 113 111 109 109 109 109 110 109 111 112 112 113 116 118 119 121 122 125 127 130 131 128 128 130 131 131 131 130 129 130 130
148 151 146 141 138 135 133 131 129 126 124 121 118 116 114 113 112 114 113 113 114 115 114 114 115 119 122 124 126 129 132 134 134 131 130 130 134 134 135 133 132 135 135
148 149 147 142 139 138 136 134 133 131 129 126 122 120 119 118 117 118 118 118 118 119 118 116 116 120 125 127 128 132 135 137 137 135 130 130 134 140 139 135 136 141 141
145 147 149 144 141 140 139 138 137 135 134 131 127 124 123 122 123 122 121 122 122 121 121 118 116 119 124 125 126 132 136 141 140 134 132 133 134 149 145 140 139 141 142
144 147 151 145 143 142 142 142 142 141 139 137 134 132 129 128 128 128 129 127 126 124 123 122 120 124 127 128 125 125 133 141 137 131 136 144 149 157 153 148 146 147 145
144 148 151 147 146 146 146 146 146 146 144 142 140 139 136 133 132 132 134 135 133 131 129 128 129 132 135 135 132 129 135 139 135 136 148 157 161 162 161 157 154 154 153
146 148 150 151 149 149 150 150 150 150 149 148 146 144 143 141 139 140 141 141 138 137 135 138 140 143 144 144 146 146 142 142 138 145 154 164 169 170 169 164 162 160 160
144 146 150 153 153 153 153 153 153 154 154 153 152 153 151 151 154 154 153 150 146 145 144 146 151 155 155 159 165 162 159 156 152 162 172 172 177 177 175 170 169 167 167
144 149 152 150 153 153 155 159 159 159 159 160 160 160 159 160 165 164 163 163 160 158 157 158 161 167 175 180 182 176 175 168 166 176 173 182 182 183 181 173 172 172 173
151 158 158 157 158 157 159 166 164 165 166 164 165 166 162 162 167 169 172 173 173 174 177 180 181 189 198 201 203 192 190 172 172 178 179 190 188 186 180 177 176 177 179
162 168 168 167 164 163 168 160 161 166 167 163 163 167 161 162 179 175 182 181 181 182 189 200 202 210 222 228 216 207 182 177 192 187 193 193 191 188 184 182 183 186 188
163 165 168 169 167 167 163 156 163 162 160 164 169 169 157 157 178 176 170 183 189 185 189 211 221 216 206 215 200 186 193 189 190 201 199 196 195 192 189 187 187 189 194
161 168 166 166 163 168 161 161 166 165 166 174 176 170 158 156 166 168 170 176 180 183 181 193 202 222 234 228 198 177 183 189 191 203 201 200 198 196 194 191 192 195 199
164 169 168 169 164 164 163 168 169 172 176 179 173 174 166 164 172 174 177 179 186 180 182 189 200 199 206 215 189 174 174 188 200 199 204 203 198 197 197 195 197 202 203
169 169 167 167 166 162 168 171 171 175 175 175 177 179 175 173 172 172 177 183 189 184 184 184 191 191 203 185 184 177 180 174 198 202 205 205 201 200 201 201 202 203 205
171 167 166 167 166 166 170 176 173 176 173 177 183 180 178 177 176 171 174 184 194 190 182 178 186 177 192 192 221 220 215 212 202 203 197 194 199 205 207 206 205 205 205
164 164 168 167 166 169 171 175 172 173 173 180 180 180 181 181 178 170 174 192 193 181 177 180 177 175 207 208 221 234 229 223 216 200 185 186 193 204 211 207 205 207 207
164 163 166 164 166 168 165 166 165 167 174 177 175 179 184 184 180 174 180 191 185 181 187 195 178 176 196 224 225 229 228 219 221 209 196 192 198 203 203 208 209 209 210
160 160 162 163 168 164 154 146 143 156 174 175 178 182 181 184 181 175 180 187 180 178 187 185 173 180 193 204 233 251 247 233 222 211 209 203 206 208 205 208 206 214 216
151 156 162 164 169 161 160 161 166 179 185 188 193 185 183 183 179 175 181 179 179 183 186 172 161 169 206 158 90 335 313 275 237 224 210 205 211 209 205 206 203 206 216
157 159 160 163 166 170 176 174 175 171 180 182 192 192 189 183 180 184 178 182 184 177 174 172 156 156 199 154 134 106 334 328 310 239 203 200 209 208 210 213 209 207 213
160 165 168 170 168 170 165 147 125 103 97 148 186 199 199 188 183 181 182 181 182 178 188 189 173 169 184 204 157 147 161 230 288 306 250 218 204 202 213 212 212 212 212
165 161 161 166 164 167 160 162 165 175 183 195 187 191 192 188 184 181 182 179 179 182 187 192 181 178 162 183 217 195 183 168 167 288 313 285 230 216 218 220 222 218 210
155 150 151 158 161 164 167 170 169 175 182 171 163 167 178 190 188 182 181 175 177 183 187 186 180 182 174 175 184 186 190 178 166 163 259 297 303 258 226 223 219 215 209
147 141 144 150 155 162 167 173 175 177 174 165 172 176 184 187 189 188 180 176 178 184 190 190 188 187 185 178 183 180 172 176 199 176 209 247 260 271 255 229 219 216 212